When you browse on this site, cookies collect data to enhance your experience and personalize the content and advertising you see.
Visit our Privacy Policy to learn more. By continuing to use the site, you agree to this use of cookies and data.
  • En España
  • Lista de países
  • Para 7 días
  • Temperatura del agua
  • Mapa Satelital
  • El tiempo en el mapa
  • Informadores
  • user-avatar
    Iniciar sesión

    Tiempo cada hora Fier

    Hoy, 19 Diciembre, Miércoles

    Tiempo Temperatura Precipitaciones Viento Presión Humedad
    00:00 +3°C° 0 mm 4 mps 765 mmHg 79%
    01:00 +3°C° 0 mm 4 mps 765 mmHg 79%
    02:00 +3°C° 0 mm 4 mps 765 mmHg 79%
    03:00 +3°C° 0 mm 4 mps 765 mmHg 79%
    04:00 +1°C° 0 mm 4 mps 765 mmHg 79%
    05:00 +1°C° 0 mm 4 mps 766 mmHg 78%
    06:00 +1°C° 0 mm 4 mps 766 mmHg 78%
    07:00 +2°C° 0 mm 3 mps 766 mmHg 77%
    08:00 +3°C° 0 mm 3 mps 767 mmHg 75%
    09:00 +5°C° 0 mm 3 mps 767 mmHg 72%
    10:00 +8°C° 0 mm 3 mps 767 mmHg 69%
    11:00 +8°C° 0 mm 3 mps 767 mmHg 69%
    12:00 +9°C° 0 mm 3 mps 767 mmHg 68%
    13:00 +10°C° 0 mm 3 mps 767 mmHg 68%
    14:00 +9°C° 0 mm 2 mps 767 mmHg 71%
    15:00 +8°C° 0 mm 2 mps 767 mmHg 74%
    16:00 +7°C° 0 mm 2 mps 767 mmHg 77%
    17:00 +7°C° 0 mm 2 mps 767 mmHg 78%
    18:00 +6°C° 0 mm 2 mps 767 mmHg 78%
    19:00 +5°C° 0 mm 2 mps 767 mmHg 79%
    20:00 +5°C° 0 mm 2 mps 768 mmHg 78%
    21:00 +5°C° 0 mm 2 mps 768 mmHg 77%
    22:00 +5°C° 0 mm 2 mps 768 mmHg 77%
    23:00 +5°C° 0 mm 2 mps 768 mmHg 77%

    Mañana, 20 Diciembre, Jueves

    Tiempo Temperatura Precipitaciones Viento Presión Humedad
    00:00 +5°C° 0 mm 2 mps 768 mmHg 77%
    01:00 +5°C° 0 mm 2 mps 768 mmHg 77%
    02:00 +5°C° 0 mm 2 mps 768 mmHg 77%
    03:00 +4°C° 0 mm 3 mps 768 mmHg 78%
    04:00 +4°C° 0 mm 3 mps 768 mmHg 78%
    05:00 +4°C° 0 mm 3 mps 768 mmHg 77%
    06:00 +4°C° 0 mm 3 mps 768 mmHg 77%
    07:00 +4°C° 0 mm 3 mps 768 mmHg 76%
    08:00 +6°C° 0 mm 4 mps 768 mmHg 74%
    09:00 +7°C° 0 mm 4 mps 768 mmHg 72%
    10:00 +10°C° 0 mm 4 mps 768 mmHg 70%
    11:00 +11°C° 0 mm 4 mps 768 mmHg 68%
    12:00 +11°C° 0 mm 4 mps 768 mmHg 66%
    13:00 +12°C° 0 mm 4 mps 768 mmHg 64%
    14:00 +11°C° 0 mm 4 mps 767 mmHg 67%
    15:00 +10°C° 0 mm 4 mps 767 mmHg 70%
    16:00 +8°C° 0 mm 4 mps 767 mmHg 73%
    17:00 +8°C° 0 mm 4 mps 768 mmHg 74%
    18:00 +7°C° 0 mm 4 mps 768 mmHg 75%
    19:00 +7°C° 0 mm 4 mps 768 mmHg 76%
    20:00 +6°C° 0 mm 4 mps 768 mmHg 76%
    21:00 +6°C° 0 mm 4 mps 768 mmHg 77%
    22:00 +6°C° 0 mm 4 mps 769 mmHg 77%
    23:00 +6°C° 0 mm 4 mps 769 mmHg 77%

    Pasado mañana, 21 Diciembre, Viernes

    Tiempo Temperatura Precipitaciones Viento Presión Humedad
    00:00 +6°C° 0 mm 4 mps 769 mmHg 77%
    01:00 +6°C° 0 mm 4 mps 768 mmHg 76%
    02:00 +7°C° 0.1 mm 4 mps 768 mmHg 76%
    03:00 +7°C° 0.1 mm 4 mps 768 mmHg 77%
    04:00 +7°C° 0.1 mm 4 mps 768 mmHg 77%
    05:00 +7°C° 0.3 mm 4 mps 768 mmHg 78%
    06:00 +7°C° 0.3 mm 4 mps 768 mmHg 79%
    07:00 +8°C° 0.3 mm 3 mps 769 mmHg 81%
    08:00 +10°C° 0.2 mm 3 mps 769 mmHg 80%
    09:00 +11°C° 0.2 mm 3 mps 769 mmHg 79%
    10:00 +12°C° 0.2 mm 3 mps 769 mmHg 78%
    11:00 +13°C° 0.1 mm 2 mps 769 mmHg 77%
    12:00 +14°C° 0.1 mm 2 mps 769 mmHg 75%
    13:00 +15°C° 0.1 mm 2 mps 768 mmHg 73%
    14:00 +14°C° 0 mm 1 mps 768 mmHg 77%
    15:00 +13°C° 0 mm 1 mps 768 mmHg 81%
    16:00 +13°C° 0 mm 1 mps 768 mmHg 84%
    17:00 +12°C° 0 mm 1 mps 769 mmHg 86%
    18:00 +12°C° 0 mm 1 mps 769 mmHg 87%
    19:00 +11°C° 0 mm 1 mps 769 mmHg 88%
    20:00 +11°C° 0 mm 1 mps 769 mmHg 89%
    21:00 +10°C° 0 mm 1 mps 769 mmHg 89%
    22:00 +10°C° 0 mm 1 mps 769 mmHg 90%
    23:00 +10°C° 0 mm 1 mps 769 mmHg 90%

    22 Diciembre, Sábado

    Tiempo Temperatura Precipitaciones Viento Presión Humedad
    00:00 +10°C° 0 mm 1 mps 769 mmHg 90%
    01:00 +10°C° 0 mm 1 mps 769 mmHg 91%
    02:00 +10°C° 0 mm 1 mps 769 mmHg 90%
    03:00 +10°C° 0 mm 1 mps 769 mmHg 90%
    04:00 +10°C° 0 mm 1 mps 769 mmHg 90%
    05:00 +9°C° 0 mm 1 mps 769 mmHg 89%
    06:00 +9°C° 0 mm 1 mps 769 mmHg 89%
    07:00 +8°C° 0 mm 2 mps 769 mmHg 88%
    08:00 +9°C° 0 mm 2 mps 769 mmHg 84%
    09:00 +12°C° 0 mm 2 mps 769 mmHg 80%
    10:00 +13°C° 0 mm 2 mps 769 mmHg 76%
    11:00 +13°C° 0 mm 2 mps 768 mmHg 74%
    12:00 +14°C° 0 mm 2 mps 767 mmHg 72%
    13:00 +14°C° 0 mm 2 mps 767 mmHg 69%
    14:00 +14°C° 0 mm 2 mps 767 mmHg 73%
    15:00 +13°C° 0 mm 2 mps 767 mmHg 76%
    16:00 +12°C° 0 mm 2 mps 767 mmHg 80%
    17:00 +10°C° 0 mm 2 mps 767 mmHg 81%
    18:00 +10°C° 0 mm 2 mps 767 mmHg 82%
    19:00 +9°C° 0 mm 2 mps 767 mmHg 83%
    20:00 +9°C° 0 mm 2 mps 767 mmHg 83%
    21:00 +9°C° 0 mm 2 mps 767 mmHg 83%
    22:00 +9°C° 0 mm 2 mps 767 mmHg 83%
    23:00 +9°C° 0 mm 2 mps 767 mmHg 83%

    23 Diciembre, Domingo

    Tiempo Temperatura Precipitaciones Viento Presión Humedad
    00:00 +9°C° 0 mm 2 mps 767 mmHg 83%
    01:00 +8°C° 0 mm 2 mps 767 mmHg 83%
    02:00 +8°C° 0 mm 2 mps 766 mmHg 83%
    03:00 +8°C° 0 mm 2 mps 766 mmHg 83%
    04:00 +8°C° 0 mm 2 mps 766 mmHg 83%
    05:00 +8°C° 0 mm 2 mps 766 mmHg 83%
    06:00 +9°C° 0 mm 1 mps 767 mmHg 84%
    07:00 +9°C° 0 mm 1 mps 767 mmHg 84%
    08:00 +11°C° 0 mm 1 mps 767 mmHg 80%
    09:00 +12°C° 0 mm 1 mps 767 mmHg 76%
    10:00 +14°C° 0 mm 1 mps 767 mmHg 73%
    11:00 +14°C° 0 mm 1 mps 767 mmHg 72%
    12:00 +15°C° 0 mm 1 mps 766 mmHg 71%
    13:00 +16°C° 0 mm 1 mps 766 mmHg 70%
    14:00 +15°C° 0 mm 1 mps 766 mmHg 74%
    15:00 +14°C° 0 mm 1 mps 766 mmHg 78%
    16:00 +13°C° 0 mm 1 mps 766 mmHg 82%
    17:00 +12°C° 0 mm 1 mps 766 mmHg 83%
    18:00 +12°C° 0 mm 1 mps 767 mmHg 83%
    19:00 +11°C° 0 mm 1 mps 767 mmHg 84%
    20:00 +11°C° 0 mm 1 mps 767 mmHg 83%
    21:00 +11°C° 0 mm 1 mps 767 mmHg 82%
    22:00 +11°C° 0 mm 1 mps 767 mmHg 80%
    23:00 +11°C° 0 mm 1 mps 767 mmHg 80%

    24 Diciembre, Lunes

    Tiempo Temperatura Precipitaciones Viento Presión Humedad
    00:00 +10°C° 0 mm 1 mps 767 mmHg 80%
    01:00 +10°C° 0 mm 1 mps 767 mmHg 79%
    02:00 +10°C° 0 mm 1 mps 767 mmHg 79%
    03:00 +10°C° 0 mm 1 mps 767 mmHg 79%
    04:00 +10°C° 0 mm 1 mps 767 mmHg 79%
    05:00 +10°C° 0 mm 1 mps 767 mmHg 79%
    06:00 +10°C° 0 mm 1 mps 767 mmHg 79%
    07:00 +10°C° 0 mm 1 mps 767 mmHg 79%
    08:00 +12°C° 0 mm 1 mps 767 mmHg 75%
    09:00 +13°C° 0 mm 1 mps 767 mmHg 71%
    10:00 +15°C° 0 mm 1 mps 767 mmHg 68%
    11:00 +15°C° 0 mm 1 mps 766 mmHg 68%
    12:00 +16°C° 0 mm 1 mps 766 mmHg 68%
    13:00 +16°C° 0 mm 1 mps 765 mmHg 67%
    14:00 +15°C° 0 mm 2 mps 766 mmHg 73%
    15:00 +14°C° 0 mm 2 mps 766 mmHg 78%
    16:00 +13°C° 0 mm 2 mps 766 mmHg 84%
    17:00 +13°C° 0 mm 2 mps 766 mmHg 85%
    18:00 +12°C° 0 mm 1 mps 767 mmHg 87%
    19:00 +12°C° 0 mm 1 mps 767 mmHg 89%
    20:00 +10°C° 0 mm 2 mps 767 mmHg 89%
    21:00 +10°C° 0 mm 2 mps 768 mmHg 88%
    22:00 +10°C° 0 mm 2 mps 768 mmHg 88%
    23:00 +10°C° 0 mm 2 mps 768 mmHg 88%
    Mostrar más